Weather History for Aspen, CO

Change the Weather History Date:

Friday, April 11, 2014

  Actual Average Record
Temperature  
Mean Temperature 48 °F 39 °F  
Max Temperature 65 °F 51 °F 68 °F (2012)
Min Temperature 30 °F 27 °F 12 °F (1999)
Degree Days  
Heating Degree Days 17 26  
Month to date heating degree days 294 305  
Since 1 July heating degree days 7420 7680  
Cooling Degree Days 0 0  
Month to date cooling degree days 0 0  
Year to date cooling degree days 0 0  
Moisture  
Dew Point 19 °F    
Average Humidity 37    
Maximum Humidity 61    
Minimum Humidity 13    
Precipitation  
Precipitation 0.00 in 0.05 in 0.45 in (2001)
Month to date precipitation 0.63 0.56  
Year to date precipitation 4.32 4.12  
Sea Level Pressure  
Sea Level Pressure 29.88 in    
Wind  
Wind Speed 8 mph (SSW)    
Max Wind Speed 18 mph    
Max Gust Speed 26 mph    
Visibility 10 miles    
Events      
T = Trace of Precipitation, MM = Missing Value Source: NWS Daily Summary

Daily Weather History Graph

Daily Weather History Graph

Search for Another Location

Airport:

Trip Planner

Search our weather history database for the weather conditions in past years. The results will help you decide how hot, cold, wet, or windy it might be!

Date:

Astronomy

Apr. 11, 2014 Rise Set
Actual Time 6:36 AM MDT 7:41 PM MDT
Civil Twilight 6:08 AM MDT 8:08 PM MDT
Nautical Twilight 5:36 AM MDT 8:41 PM MDT
Astronomical Twilight 5:02 AM MDT 9:15 PM MDT
Moon 4:25 PM MDT (4/11) 4:31 AM MDT (4/11)
Length of Visible Light 13h 59m
Length of Day
13h 04m
Waxing Gibbous, 87% of the Moon is Illuminated
Apr 11
Waxing Gibbous
Apr 15
Full
Apr 22
Last Quarter
Apr 29
New
May 6
First Quarter

Hourly Weather History & Observations

Time (MDT) Temp. Windchill Dew Point Humidity Pressure Visibility Wind Dir Wind Speed Gust Speed Precip Events Conditions
12:53 AM 37.0 °F 30.4 °F 23.0 °F 57% 29.94 in 10.0 mi South 9.2 mph - N/A   Clear
1:53 AM 36.0 °F 29.6 °F 21.9 °F 57% 29.93 in 10.0 mi SSW 8.1 mph - N/A   Clear
2:53 AM 33.1 °F 27.7 °F 21.9 °F 64% 29.95 in 10.0 mi SSW 5.8 mph - N/A   Clear
3:53 AM 35.1 °F 29.3 °F 21.0 °F 57% 29.94 in 10.0 mi SSW 6.9 mph - N/A   Clear
4:53 AM 33.1 °F 26.1 °F 21.0 °F 61% 29.95 in 10.0 mi South 8.1 mph - N/A   Clear
5:53 AM 34.0 °F 26.6 °F 21.0 °F 59% 29.98 in 10.0 mi SSW 9.2 mph - N/A   Clear
6:53 AM 32.0 °F 27.5 °F 19.9 °F 61% 30.00 in 10.0 mi South 4.6 mph - N/A   Clear
7:53 AM 37.0 °F 34.5 °F 21.9 °F 54% 30.00 in 10.0 mi Variable 3.5 mph - N/A   Clear
8:53 AM 43.0 °F - 21.0 °F 42% 30.00 in 10.0 mi Calm Calm - N/A   Clear
9:53 AM 50.0 °F - 19.0 °F 29% 29.95 in 10.0 mi Calm Calm - N/A   Clear
10:53 AM 57.0 °F - 15.1 °F 19% 29.92 in 10.0 mi NNE 6.9 mph - N/A   Clear
11:53 AM 59.0 °F - 14.0 °F 17% 29.92 in 10.0 mi Variable 4.6 mph - N/A   Clear
12:53 PM 63.0 °F - 12.9 °F 14% 29.87 in 10.0 mi North 12.7 mph 23.0 mph N/A   Clear
1:53 PM 63.0 °F - 10.9 °F 13% 29.85 in 10.0 mi Variable 5.8 mph - N/A   Clear
2:53 PM 64.0 °F - 15.1 °F 15% 29.83 in 10.0 mi SSW 10.4 mph 19.6 mph N/A   Clear
3:53 PM 63.0 °F - 14.0 °F 15% 29.80 in 10.0 mi SSW 12.7 mph 20.7 mph N/A   Partly Cloudy
4:53 PM 64.0 °F - 14.0 °F 14% 29.78 in 10.0 mi SSW 11.5 mph 19.6 mph N/A   Scattered Clouds
5:53 PM 63.0 °F - 12.9 °F 14% 29.77 in 10.0 mi SW 8.1 mph - N/A   Scattered Clouds
6:53 PM 59.0 °F - 16.0 °F 19% 29.80 in 10.0 mi SW 8.1 mph - N/A   Partly Cloudy
7:53 PM 52.0 °F - 21.9 °F 31% 29.81 in 10.0 mi South 8.1 mph - N/A   Clear
8:53 PM 45.0 °F 40.1 °F 25.0 °F 46% 29.84 in 10.0 mi SSW 9.2 mph - N/A   Clear
9:53 PM 45.0 °F 40.1 °F 23.0 °F 42% 29.81 in 10.0 mi SSW 9.2 mph - N/A   Clear
10:53 PM 42.1 °F 37.1 °F 23.0 °F 47% 29.78 in 10.0 mi South 8.1 mph - N/A   Clear
11:53 PM 41.0 °F 34.3 °F 21.9 °F 47% 29.78 in 10.0 mi SSW 11.5 mph - N/A   Clear